Weather History for Farmingdale, NY

Change the Weather History Date:

Monday, February 18, 2013

  Actual Average Record
Temperature  
Mean Temperature 26 °F -  
Max Temperature 35 °F 39 °F 64 °F (2011)
Min Temperature 17 °F 26 °F 15 °F (2006)
Degree Days  
Heating Degree Days 39    
Moisture  
Dew Point 5 °F    
Average Humidity 41    
Maximum Humidity 52    
Minimum Humidity 27    
Precipitation  
Precipitation 0.00 in - - ()
Sea Level Pressure  
Sea Level Pressure 30.16 in    
Wind  
Wind Speed 14 mph (WNW)    
Max Wind Speed 21 mph    
Max Gust Speed 38 mph    
Visibility 10 miles    
Events      
Averages and records for this station are not official NWS values.
T = Trace of Precipitation, MM = Missing Value Source: NWS Daily Summary

Daily Weather History Graph

Daily Weather History Graph

Search for Another Location

Airport:

Trip Planner

Search our weather history database for the weather conditions in past years. The results will help you decide how hot, cold, wet, or windy it might be!

Date:

Astronomy

Feb. 18, 2013 Rise Set
Actual Time 6:43 AM EST 5:32 PM EST
Civil Twilight 6:15 AM EST 6:00 PM EST
Nautical Twilight 5:43 AM EST 6:32 PM EST
Astronomical Twilight 5:11 AM EST 7:04 PM EST
Moon 11:15 AM EST (2/18) 1:21 AM EST (2/18)
Length of Visible Light 11h 44m
Length of Day
10h 49m
First Quarter, 58% of the Moon is Illuminated
Feb 18
First Quarter
Feb 25
Full
Mar 4
Last Quarter
Mar 11
New
Mar 19
First Quarter

Hourly Weather History & Observations

Time (EST) Temp. Windchill Dew Point Humidity Pressure Visibility Wind Dir Wind Speed Gust Speed Precip Events Conditions
12:53 AM 18.0 °F 2.2 °F -0.0 °F 45% 29.97 in 10.0 mi NW 18.4 mph 29.9 mph N/A   Clear
1:53 AM 18.0 °F 1.3 °F -0.0 °F 45% 29.99 in 10.0 mi WNW 20.7 mph 38.0 mph N/A   Clear
2:53 AM 18.0 °F 2.6 °F 1.0 °F 48% 30.00 in 10.0 mi NW 17.3 mph 31.1 mph N/A   Clear
3:53 AM 18.0 °F 4.2 °F 1.0 °F 48% 30.04 in 10.0 mi NW 13.8 mph 34.5 mph N/A   Clear
4:53 AM 17.1 °F 3.0 °F 1.0 °F 50% 30.06 in 10.0 mi NW 13.8 mph 27.6 mph N/A   Clear
5:53 AM 17.1 °F 2.5 °F 1.0 °F 50% 30.10 in 10.0 mi WNW 15.0 mph 20.7 mph N/A   Clear
7:53 AM 19.0 °F 6.8 °F 3.0 °F 50% 30.15 in 10.0 mi NW 11.5 mph 29.9 mph N/A   Clear
8:53 AM 21.0 °F 8.6 °F 3.0 °F 46% 30.18 in 10.0 mi NW 12.7 mph 26.5 mph N/A   Clear
9:53 AM 23.0 °F 10.6 °F 3.9 °F 44% 30.21 in 10.0 mi NW 13.8 mph 27.6 mph N/A   Clear
10:53 AM 25.0 °F 13.1 °F 3.9 °F 41% 30.23 in 10.0 mi WNW 13.8 mph 23.0 mph N/A   Clear
11:53 AM 28.9 °F 19.8 °F 5.0 °F 36% 30.22 in 10.0 mi WNW 10.4 mph 20.7 mph N/A   Clear
12:53 PM 30.9 °F 22.2 °F 5.0 °F 33% 30.20 in 10.0 mi West 10.4 mph 17.3 mph N/A   Clear
1:53 PM 32.0 °F 21.6 °F 5.0 °F 32% 30.19 in 10.0 mi WNW 15.0 mph 21.9 mph N/A   Clear
2:53 PM 33.1 °F 24.4 °F 5.0 °F 31% 30.17 in 10.0 mi WNW 11.5 mph 20.7 mph N/A   Clear
3:53 PM 35.1 °F 27.9 °F 3.9 °F 27% 30.18 in 10.0 mi WNW 9.2 mph 18.4 mph N/A   Clear
4:53 PM 34.0 °F 25.0 °F 3.9 °F 28% 30.19 in 10.0 mi WNW 12.7 mph 18.4 mph N/A   Clear
5:53 PM 33.1 °F 30.0 °F 5.0 °F 31% 30.20 in 10.0 mi WNW 3.5 mph - N/A   Clear
6:53 PM 32.0 °F 26.4 °F 7.0 °F 35% 30.21 in 10.0 mi West 5.8 mph - N/A   Clear
7:53 PM 30.9 °F 24.3 °F 9.0 °F 40% 30.22 in 10.0 mi WSW 6.9 mph - N/A   Clear
8:53 PM 30.9 °F 23.5 °F 10.0 °F 42% 30.22 in 10.0 mi West 8.1 mph - N/A   Clear
9:53 PM 30.0 °F 24.1 °F 10.9 °F 45% 30.22 in 10.0 mi WSW 5.8 mph - N/A   Clear
10:53 PM 30.9 °F 26.2 °F 14.0 °F 50% 30.23 in 10.0 mi SW 4.6 mph - N/A   Clear
11:53 PM 30.9 °F 26.2 °F 15.1 °F 52% 30.23 in 10.0 mi SW 4.6 mph - N/A   Mostly Cloudy